Location: Unspecified
(33.9239°N, 118.0544°W)
Time: 10:06:00
(UTC-07:00)

Cosmos 2058 - Visible Passes

Search period start: 21 April 2018 00:00
Search period end: 01 May 2018 00:00
Orbit: 563 x 584 km, 82.5° (Epoch: 21 April)

Date Brightness Start Highest point End Pass type
(mag) Time Alt. Az. Time Alt. Az. Time Alt. Az.
21 Apr 5.9 20:03:54 10° NW 20:06:57 19° W 20:09:58 10° SW visible
22 Apr 6.1 20:07:44 10° NW 20:10:01 14° W 20:12:19 10° WSW visible
23 Apr 6.6 20:12:19 10° WNW 20:13:06 10° W 20:13:53 10° W visible
30 Apr 6.4 05:37:42 10° ESE 05:39:01 11° E 05:40:21 10° ENE visible
